User: anonymous   Login
Location: Unspecified
(0.0000°N, 0.0000°E)
Time: 09:35:13
(UTC+01:00)
Language:

ARIANE DEB (SPELDA) - Orbit

View from above orbital plane
View from above orbital plane
View from above satellite
View from above satellite

Ground track
Ground track

The orbit data is extracted from the following two-line orbital elements,

1 27402U 02015D   15029.23694487  .00000810  00000-0  99589-3 0  1504
2 27402 003.2527 149.8331 7099125 266.2758 009.8396 02.46278362112474
Epoch (UTC): 29 January 2015 05:41:12
Eccentricity: 0.7099125
inclination: 3.2527°
perigee height: 341 km
apogee height: 33227 km
right ascension of ascending node: 149.8331°
argument of perigee: 266.2758°
revolutions per day: 2.46278362
mean anomaly at epoch: 9.8396°
orbit number at epoch: 11247

The dashed part of the orbit path shows where the satellite is in the earth's shadow,  

DLR